Index of /20260507/WXO-DD/model_rdps/10km/00/078
Name Last modified Size Description
Parent Directory -
20260507T00Z_MSC_RDPS_AbsoluteVorticity_IsbL-0250_RLatLon0.09_PT078H.grib2 2026-05-07 03:18 606K
20260507T00Z_MSC_RDPS_AbsoluteVorticity_IsbL-0500_RLatLon0.09_PT078H.grib2 2026-05-07 03:18 564K
20260507T00Z_MSC_RDPS_AbsoluteVorticity_IsbL-0700_RLatLon0.09_PT078H.grib2 2026-05-07 03:18 623K
20260507T00Z_MSC_RDPS_AbsoluteVorticity_IsbL-0850_RLatLon0.09_PT078H.grib2 2026-05-07 03:18 783K
20260507T00Z_MSC_RDPS_AirTemp_AGL-120m_RLatLon0.09_PT078H.grib2 2026-05-07 03:18 373K
20260507T00Z_MSC_RDPS_AirTemp_AGL-2m_RLatLon0.09_PT078H.grib2 2026-05-07 03:18 617K
20260507T00Z_MSC_RDPS_AirTemp_AGL-40m_RLatLon0.09_PT078H.grib2 2026-05-07 03:18 388K
20260507T00Z_MSC_RDPS_AirTemp_AGL-80m_RLatLon0.09_PT078H.grib2 2026-05-07 03:18 379K
20260507T00Z_MSC_RDPS_AirTemp_IsbL-0001_RLatLon0.09_PT078H.grib2 2026-05-07 03:18 229K
20260507T00Z_MSC_RDPS_AirTemp_IsbL-0005_RLatLon0.09_PT078H.grib2 2026-05-07 03:18 377K
20260507T00Z_MSC_RDPS_AirTemp_IsbL-0010_RLatLon0.09_PT078H.grib2 2026-05-07 03:18 298K
20260507T00Z_MSC_RDPS_AirTemp_IsbL-0020_RLatLon0.09_PT078H.grib2 2026-05-07 03:18 315K
20260507T00Z_MSC_RDPS_AirTemp_IsbL-0030_RLatLon0.09_PT078H.grib2 2026-05-07 03:18 332K
20260507T00Z_MSC_RDPS_AirTemp_IsbL-0050_RLatLon0.09_PT078H.grib2 2026-05-07 03:18 307K
20260507T00Z_MSC_RDPS_AirTemp_IsbL-0100_RLatLon0.09_PT078H.grib2 2026-05-07 03:18 427K
20260507T00Z_MSC_RDPS_AirTemp_IsbL-0150_RLatLon0.09_PT078H.grib2 2026-05-07 03:18 412K
20260507T00Z_MSC_RDPS_AirTemp_IsbL-0175_RLatLon0.09_PT078H.grib2 2026-05-07 03:18 405K
20260507T00Z_MSC_RDPS_AirTemp_IsbL-0200_RLatLon0.09_PT078H.grib2 2026-05-07 03:18 408K
20260507T00Z_MSC_RDPS_AirTemp_IsbL-0225_RLatLon0.09_PT078H.grib2 2026-05-07 03:18 410K
20260507T00Z_MSC_RDPS_AirTemp_IsbL-0250_RLatLon0.09_PT078H.grib2 2026-05-07 03:18 423K
20260507T00Z_MSC_RDPS_AirTemp_IsbL-0275_RLatLon0.09_PT078H.grib2 2026-05-07 03:18 403K
20260507T00Z_MSC_RDPS_AirTemp_IsbL-0300_RLatLon0.09_PT078H.grib2 2026-05-07 03:18 434K
20260507T00Z_MSC_RDPS_AirTemp_IsbL-0350_RLatLon0.09_PT078H.grib2 2026-05-07 03:18 422K
20260507T00Z_MSC_RDPS_AirTemp_IsbL-0400_RLatLon0.09_PT078H.grib2 2026-05-07 03:18 425K
20260507T00Z_MSC_RDPS_AirTemp_IsbL-0450_RLatLon0.09_PT078H.grib2 2026-05-07 03:18 434K
20260507T00Z_MSC_RDPS_AirTemp_IsbL-0500_RLatLon0.09_PT078H.grib2 2026-05-07 03:18 445K
20260507T00Z_MSC_RDPS_AirTemp_IsbL-0550_RLatLon0.09_PT078H.grib2 2026-05-07 03:18 462K
20260507T00Z_MSC_RDPS_AirTemp_IsbL-0600_RLatLon0.09_PT078H.grib2 2026-05-07 03:18 479K
20260507T00Z_MSC_RDPS_AirTemp_IsbL-0650_RLatLon0.09_PT078H.grib2 2026-05-07 03:18 494K
20260507T00Z_MSC_RDPS_AirTemp_IsbL-0700_RLatLon0.09_PT078H.grib2 2026-05-07 03:18 521K
20260507T00Z_MSC_RDPS_AirTemp_IsbL-0750_RLatLon0.09_PT078H.grib2 2026-05-07 03:18 522K
20260507T00Z_MSC_RDPS_AirTemp_IsbL-0800_RLatLon0.09_PT078H.grib2 2026-05-07 03:18 460K
20260507T00Z_MSC_RDPS_AirTemp_IsbL-0850_RLatLon0.09_PT078H.grib2 2026-05-07 03:18 505K
20260507T00Z_MSC_RDPS_AirTemp_IsbL-0875_RLatLon0.09_PT078H.grib2 2026-05-07 03:18 520K
20260507T00Z_MSC_RDPS_AirTemp_IsbL-0900_RLatLon0.09_PT078H.grib2 2026-05-07 03:18 525K
20260507T00Z_MSC_RDPS_AirTemp_IsbL-0925_RLatLon0.09_PT078H.grib2 2026-05-07 03:18 523K
20260507T00Z_MSC_RDPS_AirTemp_IsbL-0950_RLatLon0.09_PT078H.grib2 2026-05-07 03:18 522K
20260507T00Z_MSC_RDPS_AirTemp_IsbL-0970_RLatLon0.09_PT078H.grib2 2026-05-07 03:18 516K
20260507T00Z_MSC_RDPS_AirTemp_IsbL-0985_RLatLon0.09_PT078H.grib2 2026-05-07 03:18 502K
20260507T00Z_MSC_RDPS_AirTemp_IsbL-1000_RLatLon0.09_PT078H.grib2 2026-05-07 03:18 486K
20260507T00Z_MSC_RDPS_AirTemp_IsbL-1015_RLatLon0.09_PT078H.grib2 2026-05-07 03:18 490K
20260507T00Z_MSC_RDPS_Albedo_Sfc_RLatLon0.09_PT078H.grib2 2026-05-07 03:18 157K
20260507T00Z_MSC_RDPS_CAPE_Sfc_RLatLon0.09_PT078H.grib2 2026-05-07 03:18 1.7M
20260507T00Z_MSC_RDPS_CIN_Sfc_RLatLon0.09_PT078H.grib2 2026-05-07 03:18 1.2M
20260507T00Z_MSC_RDPS_CloudWater_EAtm_RLatLon0.09_PT078H.grib2 2026-05-07 03:18 226K
20260507T00Z_MSC_RDPS_ConvectivePrecip-Accum_Sfc_RLatLon0.09_PT078H.grib2 2026-05-07 03:18 1.2M
20260507T00Z_MSC_RDPS_DewPointDepression_AGL-2m_RLatLon0.09_PT078H.grib2 2026-05-07 03:18 395K
20260507T00Z_MSC_RDPS_DewPointDepression_IsbL-0001_RLatLon0.09_PT078H.grib2 2026-05-07 03:18 193
20260507T00Z_MSC_RDPS_DewPointDepression_IsbL-0005_RLatLon0.09_PT078H.grib2 2026-05-07 03:18 193
20260507T00Z_MSC_RDPS_DewPointDepression_IsbL-0010_RLatLon0.09_PT078H.grib2 2026-05-07 03:18 193
20260507T00Z_MSC_RDPS_DewPointDepression_IsbL-0020_RLatLon0.09_PT078H.grib2 2026-05-07 03:18 193
20260507T00Z_MSC_RDPS_DewPointDepression_IsbL-0030_RLatLon0.09_PT078H.grib2 2026-05-07 03:18 897
20260507T00Z_MSC_RDPS_DewPointDepression_IsbL-0050_RLatLon0.09_PT078H.grib2 2026-05-07 03:18 78K
20260507T00Z_MSC_RDPS_DewPointDepression_IsbL-0100_RLatLon0.09_PT078H.grib2 2026-05-07 03:18 109K
20260507T00Z_MSC_RDPS_DewPointDepression_IsbL-0150_RLatLon0.09_PT078H.grib2 2026-05-07 03:18 143K
20260507T00Z_MSC_RDPS_DewPointDepression_IsbL-0175_RLatLon0.09_PT078H.grib2 2026-05-07 03:18 170K
20260507T00Z_MSC_RDPS_DewPointDepression_IsbL-0200_RLatLon0.09_PT078H.grib2 2026-05-07 03:18 214K
20260507T00Z_MSC_RDPS_DewPointDepression_IsbL-0225_RLatLon0.09_PT078H.grib2 2026-05-07 03:18 260K
20260507T00Z_MSC_RDPS_DewPointDepression_IsbL-0250_RLatLon0.09_PT078H.grib2 2026-05-07 03:18 303K
20260507T00Z_MSC_RDPS_DewPointDepression_IsbL-0275_RLatLon0.09_PT078H.grib2 2026-05-07 03:18 309K
20260507T00Z_MSC_RDPS_DewPointDepression_IsbL-0300_RLatLon0.09_PT078H.grib2 2026-05-07 03:18 321K
20260507T00Z_MSC_RDPS_DewPointDepression_IsbL-0350_RLatLon0.09_PT078H.grib2 2026-05-07 03:18 326K
20260507T00Z_MSC_RDPS_DewPointDepression_IsbL-0400_RLatLon0.09_PT078H.grib2 2026-05-07 03:18 335K
20260507T00Z_MSC_RDPS_DewPointDepression_IsbL-0450_RLatLon0.09_PT078H.grib2 2026-05-07 03:18 340K
20260507T00Z_MSC_RDPS_DewPointDepression_IsbL-0500_RLatLon0.09_PT078H.grib2 2026-05-07 03:18 346K
20260507T00Z_MSC_RDPS_DewPointDepression_IsbL-0550_RLatLon0.09_PT078H.grib2 2026-05-07 03:18 355K
20260507T00Z_MSC_RDPS_DewPointDepression_IsbL-0600_RLatLon0.09_PT078H.grib2 2026-05-07 03:18 372K
20260507T00Z_MSC_RDPS_DewPointDepression_IsbL-0650_RLatLon0.09_PT078H.grib2 2026-05-07 03:18 382K
20260507T00Z_MSC_RDPS_DewPointDepression_IsbL-0700_RLatLon0.09_PT078H.grib2 2026-05-07 03:18 392K
20260507T00Z_MSC_RDPS_DewPointDepression_IsbL-0750_RLatLon0.09_PT078H.grib2 2026-05-07 03:18 411K
20260507T00Z_MSC_RDPS_DewPointDepression_IsbL-0800_RLatLon0.09_PT078H.grib2 2026-05-07 03:18 448K
20260507T00Z_MSC_RDPS_DewPointDepression_IsbL-0850_RLatLon0.09_PT078H.grib2 2026-05-07 03:18 473K
20260507T00Z_MSC_RDPS_DewPointDepression_IsbL-0875_RLatLon0.09_PT078H.grib2 2026-05-07 03:18 467K
20260507T00Z_MSC_RDPS_DewPointDepression_IsbL-0900_RLatLon0.09_PT078H.grib2 2026-05-07 03:18 454K
20260507T00Z_MSC_RDPS_DewPointDepression_IsbL-0925_RLatLon0.09_PT078H.grib2 2026-05-07 03:18 442K
20260507T00Z_MSC_RDPS_DewPointDepression_IsbL-0950_RLatLon0.09_PT078H.grib2 2026-05-07 03:18 434K
20260507T00Z_MSC_RDPS_DewPointDepression_IsbL-0970_RLatLon0.09_PT078H.grib2 2026-05-07 03:18 428K
20260507T00Z_MSC_RDPS_DewPointDepression_IsbL-0985_RLatLon0.09_PT078H.grib2 2026-05-07 03:18 423K
20260507T00Z_MSC_RDPS_DewPointDepression_IsbL-1000_RLatLon0.09_PT078H.grib2 2026-05-07 03:18 417K
20260507T00Z_MSC_RDPS_DewPointDepression_IsbL-1015_RLatLon0.09_PT078H.grib2 2026-05-07 03:18 407K
20260507T00Z_MSC_RDPS_DewPoint_AGL-2m_RLatLon0.09_PT078H.grib2 2026-05-07 03:18 386K
20260507T00Z_MSC_RDPS_DownwardLongwaveRadiationFlux-Accum_Sfc_RLatLon0.09_PT078H.grib2 2026-05-07 03:18 436K
20260507T00Z_MSC_RDPS_DownwardShortwaveRadiationFlux-Accum_NTAtm_RLatLon0.09_PT078H.grib2 2026-05-07 03:18 155K
20260507T00Z_MSC_RDPS_DownwardShortwaveRadiationFlux-Accum_Sfc_RLatLon0.09_PT078H.grib2 2026-05-07 03:18 636K
20260507T00Z_MSC_RDPS_FreezingRain-Accum12h_Sfc_RLatLon0.09_PT078H.grib2 2026-05-07 03:18 65K
20260507T00Z_MSC_RDPS_FreezingRain-Accum1h_Sfc_RLatLon0.09_PT078H.grib2 2026-05-07 03:18 39K
20260507T00Z_MSC_RDPS_FreezingRain-Accum24h_Sfc_RLatLon0.09_PT078H.grib2 2026-05-07 03:18 93K
20260507T00Z_MSC_RDPS_FreezingRain-Accum3h_Sfc_RLatLon0.09_PT078H.grib2 2026-05-07 03:18 55K
20260507T00Z_MSC_RDPS_FreezingRain-Accum6h_Sfc_RLatLon0.09_PT078H.grib2 2026-05-07 03:18 72K
20260507T00Z_MSC_RDPS_FreezingRain-Accum_Sfc_RLatLon0.09_PT078H.grib2 2026-05-07 03:18 199K
20260507T00Z_MSC_RDPS_GeopotentialHeight_IsbL-0001_RLatLon0.09_PT078H.grib2 2026-05-07 03:18 310K
20260507T00Z_MSC_RDPS_GeopotentialHeight_IsbL-0005_RLatLon0.09_PT078H.grib2 2026-05-07 03:18 302K
20260507T00Z_MSC_RDPS_GeopotentialHeight_IsbL-0010_RLatLon0.09_PT078H.grib2 2026-05-07 03:18 304K
20260507T00Z_MSC_RDPS_GeopotentialHeight_IsbL-0020_RLatLon0.09_PT078H.grib2 2026-05-07 03:18 304K
20260507T00Z_MSC_RDPS_GeopotentialHeight_IsbL-0030_RLatLon0.09_PT078H.grib2 2026-05-07 03:18 400K
20260507T00Z_MSC_RDPS_GeopotentialHeight_IsbL-0050_RLatLon0.09_PT078H.grib2 2026-05-07 03:18 307K
20260507T00Z_MSC_RDPS_GeopotentialHeight_IsbL-0100_RLatLon0.09_PT078H.grib2 2026-05-07 03:18 285K
20260507T00Z_MSC_RDPS_GeopotentialHeight_IsbL-0150_RLatLon0.09_PT078H.grib2 2026-05-07 03:18 227K
20260507T00Z_MSC_RDPS_GeopotentialHeight_IsbL-0175_RLatLon0.09_PT078H.grib2 2026-05-07 03:18 229K
20260507T00Z_MSC_RDPS_GeopotentialHeight_IsbL-0200_RLatLon0.09_PT078H.grib2 2026-05-07 03:18 231K
20260507T00Z_MSC_RDPS_GeopotentialHeight_IsbL-0225_RLatLon0.09_PT078H.grib2 2026-05-07 03:18 264K
20260507T00Z_MSC_RDPS_GeopotentialHeight_IsbL-0250_RLatLon0.09_PT078H.grib2 2026-05-07 03:18 267K
20260507T00Z_MSC_RDPS_GeopotentialHeight_IsbL-0275_RLatLon0.09_PT078H.grib2 2026-05-07 03:18 266K
20260507T00Z_MSC_RDPS_GeopotentialHeight_IsbL-0300_RLatLon0.09_PT078H.grib2 2026-05-07 03:18 235K
20260507T00Z_MSC_RDPS_GeopotentialHeight_IsbL-0350_RLatLon0.09_PT078H.grib2 2026-05-07 03:18 231K
20260507T00Z_MSC_RDPS_GeopotentialHeight_IsbL-0400_RLatLon0.09_PT078H.grib2 2026-05-07 03:18 228K
20260507T00Z_MSC_RDPS_GeopotentialHeight_IsbL-0450_RLatLon0.09_PT078H.grib2 2026-05-07 03:18 295K
20260507T00Z_MSC_RDPS_GeopotentialHeight_IsbL-0500_RLatLon0.09_PT078H.grib2 2026-05-07 03:18 290K
20260507T00Z_MSC_RDPS_GeopotentialHeight_IsbL-0550_RLatLon0.09_PT078H.grib2 2026-05-07 03:18 286K
20260507T00Z_MSC_RDPS_GeopotentialHeight_IsbL-0600_RLatLon0.09_PT078H.grib2 2026-05-07 03:18 282K
20260507T00Z_MSC_RDPS_GeopotentialHeight_IsbL-0650_RLatLon0.09_PT078H.grib2 2026-05-07 03:18 253K
20260507T00Z_MSC_RDPS_GeopotentialHeight_IsbL-0700_RLatLon0.09_PT078H.grib2 2026-05-07 03:18 252K
20260507T00Z_MSC_RDPS_GeopotentialHeight_IsbL-0750_RLatLon0.09_PT078H.grib2 2026-05-07 03:18 255K
20260507T00Z_MSC_RDPS_GeopotentialHeight_IsbL-0800_RLatLon0.09_PT078H.grib2 2026-05-07 03:18 347K
20260507T00Z_MSC_RDPS_GeopotentialHeight_IsbL-0850_RLatLon0.09_PT078H.grib2 2026-05-07 03:18 357K
20260507T00Z_MSC_RDPS_GeopotentialHeight_IsbL-0875_RLatLon0.09_PT078H.grib2 2026-05-07 03:18 359K
20260507T00Z_MSC_RDPS_GeopotentialHeight_IsbL-0900_RLatLon0.09_PT078H.grib2 2026-05-07 03:18 362K
20260507T00Z_MSC_RDPS_GeopotentialHeight_IsbL-0925_RLatLon0.09_PT078H.grib2 2026-05-07 03:18 365K
20260507T00Z_MSC_RDPS_GeopotentialHeight_IsbL-0950_RLatLon0.09_PT078H.grib2 2026-05-07 03:18 370K
20260507T00Z_MSC_RDPS_GeopotentialHeight_IsbL-0970_RLatLon0.09_PT078H.grib2 2026-05-07 03:18 375K
20260507T00Z_MSC_RDPS_GeopotentialHeight_IsbL-0985_RLatLon0.09_PT078H.grib2 2026-05-07 03:18 382K
20260507T00Z_MSC_RDPS_GeopotentialHeight_IsbL-1000_RLatLon0.09_PT078H.grib2 2026-05-07 03:18 393K
20260507T00Z_MSC_RDPS_GeopotentialHeight_IsbL-1015_RLatLon0.09_PT078H.grib2 2026-05-07 03:18 408K
20260507T00Z_MSC_RDPS_HighLowPressure_MSL_RLatLon0.09_PT078H.json 2026-05-07 02:58 20K
20260507T00Z_MSC_RDPS_Humidex_Sfc_RLatLon0.09_PT078H.grib2 2026-05-07 03:18 2.4M
20260507T00Z_MSC_RDPS_IcePellets-Accum12h_Sfc_RLatLon0.09_PT078H.grib2 2026-05-07 03:18 10K
20260507T00Z_MSC_RDPS_IcePellets-Accum1h_Sfc_RLatLon0.09_PT078H.grib2 2026-05-07 03:18 8.4K
20260507T00Z_MSC_RDPS_IcePellets-Accum24h_Sfc_RLatLon0.09_PT078H.grib2 2026-05-07 03:18 16K
20260507T00Z_MSC_RDPS_IcePellets-Accum3h_Sfc_RLatLon0.09_PT078H.grib2 2026-05-07 03:18 9.1K
20260507T00Z_MSC_RDPS_IcePellets-Accum6h_Sfc_RLatLon0.09_PT078H.grib2 2026-05-07 03:18 10K
20260507T00Z_MSC_RDPS_IcePellets-Accum_Sfc_RLatLon0.09_PT078H.grib2 2026-05-07 03:18 30K
20260507T00Z_MSC_RDPS_KIndex_Sfc_RLatLon0.09_PT078H.grib2 2026-05-07 03:18 2.5M
20260507T00Z_MSC_RDPS_LatentHeatNetFlux_Sfc_RLatLon0.09_PT078H.grib2 2026-05-07 03:18 320K
20260507T00Z_MSC_RDPS_LiftedIndex-MU-VT_IsbL-0500_RLatLon0.09_PT078H.grib2 2026-05-07 03:18 2.4M
20260507T00Z_MSC_RDPS_NetLongwaveRadiationFlux-Accum_Sfc_RLatLon0.09_PT078H.grib2 2026-05-07 03:18 485K
20260507T00Z_MSC_RDPS_NetShortwaveRadiationFlux-Accum_Sfc_RLatLon0.09_PT078H.grib2 2026-05-07 03:18 638K
20260507T00Z_MSC_RDPS_PlanetaryBoundaryLayerHeight_Sfc_RLatLon0.09_PT078H.grib2 2026-05-07 03:18 1.1M
20260507T00Z_MSC_RDPS_Precip-Accum12h_Sfc_RLatLon0.09_PT078H.grib2 2026-05-07 03:18 1.6M
20260507T00Z_MSC_RDPS_Precip-Accum1h_Sfc_RLatLon0.09_PT078H.grib2 2026-05-07 03:18 1.2M
20260507T00Z_MSC_RDPS_Precip-Accum24h_Sfc_RLatLon0.09_PT078H.grib2 2026-05-07 03:18 1.8M
20260507T00Z_MSC_RDPS_Precip-Accum3h_Sfc_RLatLon0.09_PT078H.grib2 2026-05-07 03:18 1.3M
20260507T00Z_MSC_RDPS_Precip-Accum6h_Sfc_RLatLon0.09_PT078H.grib2 2026-05-07 03:18 1.5M
20260507T00Z_MSC_RDPS_Precip-Accum_Sfc_RLatLon0.09_PT078H.grib2 2026-05-07 03:18 2.2M
20260507T00Z_MSC_RDPS_PrecipRate_Sfc_RLatLon0.09_PT078H.grib2 2026-05-07 03:18 164K
20260507T00Z_MSC_RDPS_PrecipType-Instant_Sfc_RLatLon0.09_PT078H.grib2 2026-05-07 03:18 577K
20260507T00Z_MSC_RDPS_Pressure-Trend3h_Sfc_RLatLon0.09_PT078H.grib2 2026-05-07 03:18 1.2M
20260507T00Z_MSC_RDPS_Pressure_MSL_RLatLon0.09_PT078H.grib2 2026-05-07 03:18 324K
20260507T00Z_MSC_RDPS_Pressure_PVU-1.5_RLatLon0.09_PT078H.grib2 2026-05-07 03:18 2.3M
20260507T00Z_MSC_RDPS_Pressure_PVU-1_RLatLon0.09_PT078H.grib2 2026-05-07 03:18 2.4M
20260507T00Z_MSC_RDPS_Pressure_PVU-2_RLatLon0.09_PT078H.grib2 2026-05-07 03:18 2.4M
20260507T00Z_MSC_RDPS_Pressure_Sfc_RLatLon0.09_PT078H.grib2 2026-05-07 03:18 497K
20260507T00Z_MSC_RDPS_RadiativeTemp_Sfc_RLatLon0.09_PT078H.grib2 2026-05-07 03:18 302K
20260507T00Z_MSC_RDPS_Rain-Accum12h_Sfc_RLatLon0.09_PT078H.grib2 2026-05-07 03:18 1.2M
20260507T00Z_MSC_RDPS_Rain-Accum1h_Sfc_RLatLon0.09_PT078H.grib2 2026-05-07 03:18 631K
20260507T00Z_MSC_RDPS_Rain-Accum24h_Sfc_RLatLon0.09_PT078H.grib2 2026-05-07 03:18 1.4M
20260507T00Z_MSC_RDPS_Rain-Accum3h_Sfc_RLatLon0.09_PT078H.grib2 2026-05-07 03:18 713K
20260507T00Z_MSC_RDPS_Rain-Accum6h_Sfc_RLatLon0.09_PT078H.grib2 2026-05-07 03:18 1.0M
20260507T00Z_MSC_RDPS_Rain-Accum_Sfc_RLatLon0.09_PT078H.grib2 2026-05-07 03:18 1.9M
20260507T00Z_MSC_RDPS_RelativeHumidity_AGL-2m_RLatLon0.09_PT078H.grib2 2026-05-07 03:18 1.0M
20260507T00Z_MSC_RDPS_RelativeHumidity_IsbL-0010_RLatLon0.09_PT078H.grib2 2026-05-07 03:18 569K
20260507T00Z_MSC_RDPS_RelativeHumidity_IsbL-0020_RLatLon0.09_PT078H.grib2 2026-05-07 03:18 629K
20260507T00Z_MSC_RDPS_RelativeHumidity_IsbL-0030_RLatLon0.09_PT078H.grib2 2026-05-07 03:18 626K
20260507T00Z_MSC_RDPS_RelativeHumidity_IsbL-0050_RLatLon0.09_PT078H.grib2 2026-05-07 03:18 352K
20260507T00Z_MSC_RDPS_RelativeHumidity_IsbL-0100_RLatLon0.09_PT078H.grib2 2026-05-07 03:18 276K
20260507T00Z_MSC_RDPS_RelativeHumidity_IsbL-0150_RLatLon0.09_PT078H.grib2 2026-05-07 03:18 409K
20260507T00Z_MSC_RDPS_RelativeHumidity_IsbL-0175_RLatLon0.09_PT078H.grib2 2026-05-07 03:18 466K
20260507T00Z_MSC_RDPS_RelativeHumidity_IsbL-0200_RLatLon0.09_PT078H.grib2 2026-05-07 03:18 539K
20260507T00Z_MSC_RDPS_RelativeHumidity_IsbL-0225_RLatLon0.09_PT078H.grib2 2026-05-07 03:18 615K
20260507T00Z_MSC_RDPS_RelativeHumidity_IsbL-0250_RLatLon0.09_PT078H.grib2 2026-05-07 03:18 693K
20260507T00Z_MSC_RDPS_RelativeHumidity_IsbL-0275_RLatLon0.09_PT078H.grib2 2026-05-07 03:18 720K
20260507T00Z_MSC_RDPS_RelativeHumidity_IsbL-0300_RLatLon0.09_PT078H.grib2 2026-05-07 03:18 756K
20260507T00Z_MSC_RDPS_RelativeHumidity_IsbL-0350_RLatLon0.09_PT078H.grib2 2026-05-07 03:18 772K
20260507T00Z_MSC_RDPS_RelativeHumidity_IsbL-0400_RLatLon0.09_PT078H.grib2 2026-05-07 03:18 788K
20260507T00Z_MSC_RDPS_RelativeHumidity_IsbL-0450_RLatLon0.09_PT078H.grib2 2026-05-07 03:18 797K
20260507T00Z_MSC_RDPS_RelativeHumidity_IsbL-0500_RLatLon0.09_PT078H.grib2 2026-05-07 03:18 801K
20260507T00Z_MSC_RDPS_RelativeHumidity_IsbL-0550_RLatLon0.09_PT078H.grib2 2026-05-07 03:18 814K
20260507T00Z_MSC_RDPS_RelativeHumidity_IsbL-0600_RLatLon0.09_PT078H.grib2 2026-05-07 03:18 837K
20260507T00Z_MSC_RDPS_RelativeHumidity_IsbL-0650_RLatLon0.09_PT078H.grib2 2026-05-07 03:18 852K
20260507T00Z_MSC_RDPS_RelativeHumidity_IsbL-0700_RLatLon0.09_PT078H.grib2 2026-05-07 03:18 884K
20260507T00Z_MSC_RDPS_RelativeHumidity_IsbL-0750_RLatLon0.09_PT078H.grib2 2026-05-07 03:18 926K
20260507T00Z_MSC_RDPS_RelativeHumidity_IsbL-0800_RLatLon0.09_PT078H.grib2 2026-05-07 03:18 1.0M
20260507T00Z_MSC_RDPS_RelativeHumidity_IsbL-0850_RLatLon0.09_PT078H.grib2 2026-05-07 03:18 1.0M
20260507T00Z_MSC_RDPS_RelativeHumidity_IsbL-0875_RLatLon0.09_PT078H.grib2 2026-05-07 03:18 1.0M
20260507T00Z_MSC_RDPS_RelativeHumidity_IsbL-0900_RLatLon0.09_PT078H.grib2 2026-05-07 03:18 1.1M
20260507T00Z_MSC_RDPS_RelativeHumidity_IsbL-0925_RLatLon0.09_PT078H.grib2 2026-05-07 03:18 1.1M
20260507T00Z_MSC_RDPS_RelativeHumidity_IsbL-0950_RLatLon0.09_PT078H.grib2 2026-05-07 03:18 1.0M
20260507T00Z_MSC_RDPS_RelativeHumidity_IsbL-0970_RLatLon0.09_PT078H.grib2 2026-05-07 03:18 1.0M
20260507T00Z_MSC_RDPS_RelativeHumidity_IsbL-0985_RLatLon0.09_PT078H.grib2 2026-05-07 03:18 1.0M
20260507T00Z_MSC_RDPS_RelativeHumidity_IsbL-1000_RLatLon0.09_PT078H.grib2 2026-05-07 03:18 1.0M
20260507T00Z_MSC_RDPS_RelativeHumidity_IsbL-1015_RLatLon0.09_PT078H.grib2 2026-05-07 03:18 1.0M
20260507T00Z_MSC_RDPS_Runoff-Accum_Sfc_RLatLon0.09_PT078H.grib2 2026-05-07 03:18 49K
20260507T00Z_MSC_RDPS_SWEATIndex_Sfc_RLatLon0.09_PT078H.grib2 2026-05-07 03:18 2.4M
20260507T00Z_MSC_RDPS_SeeingIndex_EAtm_RLatLon0.09_PT078H.grib2 2026-05-07 03:18 1.0M
20260507T00Z_MSC_RDPS_SensibleHeatNetFlux_Sfc_RLatLon0.09_PT078H.grib2 2026-05-07 03:18 292K
20260507T00Z_MSC_RDPS_ShowalterIndex_IsbL-0500_RLatLon0.09_PT078H.grib2 2026-05-07 03:18 2.6M
20260507T00Z_MSC_RDPS_SkyTransparencyIndex_EAtm_RLatLon0.09_PT078H.grib2 2026-05-07 03:18 697K
20260507T00Z_MSC_RDPS_Snow-Accum12h_Sfc_RLatLon0.09_PT078H.grib2 2026-05-07 03:18 545K
20260507T00Z_MSC_RDPS_Snow-Accum1h_Sfc_RLatLon0.09_PT078H.grib2 2026-05-07 03:18 370K
20260507T00Z_MSC_RDPS_Snow-Accum24h_Sfc_RLatLon0.09_PT078H.grib2 2026-05-07 03:18 568K
20260507T00Z_MSC_RDPS_Snow-Accum3h_Sfc_RLatLon0.09_PT078H.grib2 2026-05-07 03:18 322K
20260507T00Z_MSC_RDPS_Snow-Accum6h_Sfc_RLatLon0.09_PT078H.grib2 2026-05-07 03:18 453K
20260507T00Z_MSC_RDPS_Snow-Accum_Sfc_RLatLon0.09_PT078H.grib2 2026-05-07 03:18 749K
20260507T00Z_MSC_RDPS_SnowDensity_Sfc_RLatLon0.09_PT078H.grib2 2026-05-07 03:18 173K
20260507T00Z_MSC_RDPS_SnowDepth_Sfc_RLatLon0.09_PT078H.grib2 2026-05-07 03:18 624K
20260507T00Z_MSC_RDPS_SoilTemp_DBS-0to10cm_RLatLon0.09_PT078H.grib2 2026-05-07 03:18 245K
20260507T00Z_MSC_RDPS_SoilTemp_Sfc_RLatLon0.09_PT078H.grib2 2026-05-07 03:18 267K
20260507T00Z_MSC_RDPS_SoilVolumetricIceContent_Sfc_RLatLon0.09_PT078H.grib2 2026-05-07 03:18 143K
20260507T00Z_MSC_RDPS_SoilVolumetricWaterContent_DBS-0to10cm_RLatLon0.09_PT078H.grib2 2026-05-07 03:18 293K
20260507T00Z_MSC_RDPS_SoilVolumetricWaterContent_DBS-0to1cm_RLatLon0.09_PT078H.grib2 2026-05-07 03:18 342K
20260507T00Z_MSC_RDPS_SpecificHumidity_AGL-120m_RLatLon0.09_PT078H.grib2 2026-05-07 03:18 491K
20260507T00Z_MSC_RDPS_SpecificHumidity_AGL-2m_RLatLon0.09_PT078H.grib2 2026-05-07 03:18 661K
20260507T00Z_MSC_RDPS_SpecificHumidity_AGL-40m_RLatLon0.09_PT078H.grib2 2026-05-07 03:18 497K
20260507T00Z_MSC_RDPS_SpecificHumidity_AGL-80m_RLatLon0.09_PT078H.grib2 2026-05-07 03:18 492K
20260507T00Z_MSC_RDPS_SpecificHumidity_IsbL-0001_RLatLon0.09_PT078H.grib2 2026-05-07 03:18 356K
20260507T00Z_MSC_RDPS_SpecificHumidity_IsbL-0005_RLatLon0.09_PT078H.grib2 2026-05-07 03:18 364K
20260507T00Z_MSC_RDPS_SpecificHumidity_IsbL-0010_RLatLon0.09_PT078H.grib2 2026-05-07 03:18 391K
20260507T00Z_MSC_RDPS_SpecificHumidity_IsbL-0020_RLatLon0.09_PT078H.grib2 2026-05-07 03:18 482K
20260507T00Z_MSC_RDPS_SpecificHumidity_IsbL-0030_RLatLon0.09_PT078H.grib2 2026-05-07 03:18 365K
20260507T00Z_MSC_RDPS_SpecificHumidity_IsbL-0050_RLatLon0.09_PT078H.grib2 2026-05-07 03:18 470K
20260507T00Z_MSC_RDPS_SpecificHumidity_IsbL-0100_RLatLon0.09_PT078H.grib2 2026-05-07 03:18 404K
20260507T00Z_MSC_RDPS_SpecificHumidity_IsbL-0150_RLatLon0.09_PT078H.grib2 2026-05-07 03:18 449K
20260507T00Z_MSC_RDPS_SpecificHumidity_IsbL-0175_RLatLon0.09_PT078H.grib2 2026-05-07 03:18 446K
20260507T00Z_MSC_RDPS_SpecificHumidity_IsbL-0200_RLatLon0.09_PT078H.grib2 2026-05-07 03:18 465K
20260507T00Z_MSC_RDPS_SpecificHumidity_IsbL-0225_RLatLon0.09_PT078H.grib2 2026-05-07 03:18 456K
20260507T00Z_MSC_RDPS_SpecificHumidity_IsbL-0250_RLatLon0.09_PT078H.grib2 2026-05-07 03:18 566K
20260507T00Z_MSC_RDPS_SpecificHumidity_IsbL-0275_RLatLon0.09_PT078H.grib2 2026-05-07 03:18 481K
20260507T00Z_MSC_RDPS_SpecificHumidity_IsbL-0300_RLatLon0.09_PT078H.grib2 2026-05-07 03:18 450K
20260507T00Z_MSC_RDPS_SpecificHumidity_IsbL-0350_RLatLon0.09_PT078H.grib2 2026-05-07 03:18 444K
20260507T00Z_MSC_RDPS_SpecificHumidity_IsbL-0400_RLatLon0.09_PT078H.grib2 2026-05-07 03:18 528K
20260507T00Z_MSC_RDPS_SpecificHumidity_IsbL-0450_RLatLon0.09_PT078H.grib2 2026-05-07 03:18 581K
20260507T00Z_MSC_RDPS_SpecificHumidity_IsbL-0500_RLatLon0.09_PT078H.grib2 2026-05-07 03:18 517K
20260507T00Z_MSC_RDPS_SpecificHumidity_IsbL-0550_RLatLon0.09_PT078H.grib2 2026-05-07 03:18 586K
20260507T00Z_MSC_RDPS_SpecificHumidity_IsbL-0600_RLatLon0.09_PT078H.grib2 2026-05-07 03:18 643K
20260507T00Z_MSC_RDPS_SpecificHumidity_IsbL-0650_RLatLon0.09_PT078H.grib2 2026-05-07 03:18 563K
20260507T00Z_MSC_RDPS_SpecificHumidity_IsbL-0700_RLatLon0.09_PT078H.grib2 2026-05-07 03:18 608K
20260507T00Z_MSC_RDPS_SpecificHumidity_IsbL-0750_RLatLon0.09_PT078H.grib2 2026-05-07 03:18 666K
20260507T00Z_MSC_RDPS_SpecificHumidity_IsbL-0800_RLatLon0.09_PT078H.grib2 2026-05-07 03:18 754K
20260507T00Z_MSC_RDPS_SpecificHumidity_IsbL-0850_RLatLon0.09_PT078H.grib2 2026-05-07 03:18 820K
20260507T00Z_MSC_RDPS_SpecificHumidity_IsbL-0875_RLatLon0.09_PT078H.grib2 2026-05-07 03:18 837K
20260507T00Z_MSC_RDPS_SpecificHumidity_IsbL-0900_RLatLon0.09_PT078H.grib2 2026-05-07 03:18 845K
20260507T00Z_MSC_RDPS_SpecificHumidity_IsbL-0925_RLatLon0.09_PT078H.grib2 2026-05-07 03:18 705K
20260507T00Z_MSC_RDPS_SpecificHumidity_IsbL-0950_RLatLon0.09_PT078H.grib2 2026-05-07 03:18 704K
20260507T00Z_MSC_RDPS_SpecificHumidity_IsbL-0970_RLatLon0.09_PT078H.grib2 2026-05-07 03:18 698K
20260507T00Z_MSC_RDPS_SpecificHumidity_IsbL-0985_RLatLon0.09_PT078H.grib2 2026-05-07 03:18 690K
20260507T00Z_MSC_RDPS_SpecificHumidity_IsbL-1000_RLatLon0.09_PT078H.grib2 2026-05-07 03:18 683K
20260507T00Z_MSC_RDPS_SpecificHumidity_IsbL-1015_RLatLon0.09_PT078H.grib2 2026-05-07 03:18 675K
20260507T00Z_MSC_RDPS_SpecificHumidity_Sfc_RLatLon0.09_PT078H.grib2 2026-05-07 03:18 318K
20260507T00Z_MSC_RDPS_StormRelativeHelicity_EtaL-10000_RLatLon0.09_PT078H.grib2 2026-05-07 03:18 1.1M
20260507T00Z_MSC_RDPS_StormSeverityIndex_EtaL-10000_RLatLon0.09_PT078H.grib2 2026-05-07 03:18 1.2M
20260507T00Z_MSC_RDPS_Thickness_IsbL-0850to0700_RLatLon0.09_PT078H.grib2 2026-05-07 03:18 248K
20260507T00Z_MSC_RDPS_Thickness_IsbL-1000to0500_RLatLon0.09_PT078H.grib2 2026-05-07 03:18 196K
20260507T00Z_MSC_RDPS_Thickness_IsbL-1000to0850_RLatLon0.09_PT078H.grib2 2026-05-07 03:18 260K
20260507T00Z_MSC_RDPS_TotalCloudCover_Sfc_RLatLon0.09_PT078H.grib2 2026-05-07 03:18 669K
20260507T00Z_MSC_RDPS_TotalTotalsIndex_Sfc_RLatLon0.09_PT078H.grib2 2026-05-07 03:18 2.5M
20260507T00Z_MSC_RDPS_UVIndex-ClearSky_Sfc_RLatLon0.09_PT078H.grib2 2026-05-07 03:18 137K
20260507T00Z_MSC_RDPS_UVIndex_Sfc_RLatLon0.09_PT078H.grib2 2026-05-07 03:18 227K
20260507T00Z_MSC_RDPS_UpwardLongwaveRadiationFlux_NTAtm_RLatLon0.09_PT078H.grib2 2026-05-07 03:18 489K
20260507T00Z_MSC_RDPS_UpwardShortwaveRadiationFlux_NTAtm_RLatLon0.09_PT078H.grib2 2026-05-07 03:18 149K
20260507T00Z_MSC_RDPS_VerticalVelocity_IsbL-0250_RLatLon0.09_PT078H.grib2 2026-05-07 03:18 426K
20260507T00Z_MSC_RDPS_VerticalVelocity_IsbL-0500_RLatLon0.09_PT078H.grib2 2026-05-07 03:18 540K
20260507T00Z_MSC_RDPS_VerticalVelocity_IsbL-0700_RLatLon0.09_PT078H.grib2 2026-05-07 03:18 594K
20260507T00Z_MSC_RDPS_VerticalVelocity_IsbL-0850_RLatLon0.09_PT078H.grib2 2026-05-07 03:18 695K
20260507T00Z_MSC_RDPS_VerticalWindShear_EtaL-6500_RLatLon0.09_PT078H.grib2 2026-05-07 03:18 1.2M
20260507T00Z_MSC_RDPS_WindChill_Sfc_RLatLon0.09_PT078H.grib2 2026-05-07 03:18 1.2M
20260507T00Z_MSC_RDPS_WindDir_AGL-10m_RLatLon0.09_PT078H.grib2 2026-05-07 03:18 960K
20260507T00Z_MSC_RDPS_WindDir_AGL-120m_RLatLon0.09_PT078H.grib2 2026-05-07 03:18 595K
20260507T00Z_MSC_RDPS_WindDir_AGL-40m_RLatLon0.09_PT078H.grib2 2026-05-07 03:18 629K
20260507T00Z_MSC_RDPS_WindDir_AGL-80m_RLatLon0.09_PT078H.grib2 2026-05-07 03:18 608K
20260507T00Z_MSC_RDPS_WindDir_IsbL-0001_RLatLon0.09_PT078H.grib2 2026-05-07 03:18 288K
20260507T00Z_MSC_RDPS_WindDir_IsbL-0005_RLatLon0.09_PT078H.grib2 2026-05-07 03:18 372K
20260507T00Z_MSC_RDPS_WindDir_IsbL-0010_RLatLon0.09_PT078H.grib2 2026-05-07 03:18 382K
20260507T00Z_MSC_RDPS_WindDir_IsbL-0020_RLatLon0.09_PT078H.grib2 2026-05-07 03:18 422K
20260507T00Z_MSC_RDPS_WindDir_IsbL-0030_RLatLon0.09_PT078H.grib2 2026-05-07 03:18 424K
20260507T00Z_MSC_RDPS_WindDir_IsbL-0050_RLatLon0.09_PT078H.grib2 2026-05-07 03:18 440K
20260507T00Z_MSC_RDPS_WindDir_IsbL-0100_RLatLon0.09_PT078H.grib2 2026-05-07 03:18 418K
20260507T00Z_MSC_RDPS_WindDir_IsbL-0150_RLatLon0.09_PT078H.grib2 2026-05-07 03:18 416K
20260507T00Z_MSC_RDPS_WindDir_IsbL-0175_RLatLon0.09_PT078H.grib2 2026-05-07 03:18 435K
20260507T00Z_MSC_RDPS_WindDir_IsbL-0200_RLatLon0.09_PT078H.grib2 2026-05-07 03:18 452K
20260507T00Z_MSC_RDPS_WindDir_IsbL-0225_RLatLon0.09_PT078H.grib2 2026-05-07 03:18 460K
20260507T00Z_MSC_RDPS_WindDir_IsbL-0250_RLatLon0.09_PT078H.grib2 2026-05-07 03:18 465K
20260507T00Z_MSC_RDPS_WindDir_IsbL-0275_RLatLon0.09_PT078H.grib2 2026-05-07 03:18 485K
20260507T00Z_MSC_RDPS_WindDir_IsbL-0300_RLatLon0.09_PT078H.grib2 2026-05-07 03:18 478K
20260507T00Z_MSC_RDPS_WindDir_IsbL-0350_RLatLon0.09_PT078H.grib2 2026-05-07 03:18 501K
20260507T00Z_MSC_RDPS_WindDir_IsbL-0400_RLatLon0.09_PT078H.grib2 2026-05-07 03:18 526K
20260507T00Z_MSC_RDPS_WindDir_IsbL-0450_RLatLon0.09_PT078H.grib2 2026-05-07 03:18 550K
20260507T00Z_MSC_RDPS_WindDir_IsbL-0500_RLatLon0.09_PT078H.grib2 2026-05-07 03:18 567K
20260507T00Z_MSC_RDPS_WindDir_IsbL-0550_RLatLon0.09_PT078H.grib2 2026-05-07 03:18 572K
20260507T00Z_MSC_RDPS_WindDir_IsbL-0600_RLatLon0.09_PT078H.grib2 2026-05-07 03:18 597K
20260507T00Z_MSC_RDPS_WindDir_IsbL-0650_RLatLon0.09_PT078H.grib2 2026-05-07 03:18 634K
20260507T00Z_MSC_RDPS_WindDir_IsbL-0700_RLatLon0.09_PT078H.grib2 2026-05-07 03:18 677K
20260507T00Z_MSC_RDPS_WindDir_IsbL-0750_RLatLon0.09_PT078H.grib2 2026-05-07 03:18 724K
20260507T00Z_MSC_RDPS_WindDir_IsbL-0800_RLatLon0.09_PT078H.grib2 2026-05-07 03:18 792K
20260507T00Z_MSC_RDPS_WindDir_IsbL-0850_RLatLon0.09_PT078H.grib2 2026-05-07 03:18 858K
20260507T00Z_MSC_RDPS_WindDir_IsbL-0875_RLatLon0.09_PT078H.grib2 2026-05-07 03:18 877K
20260507T00Z_MSC_RDPS_WindDir_IsbL-0900_RLatLon0.09_PT078H.grib2 2026-05-07 03:18 891K
20260507T00Z_MSC_RDPS_WindDir_IsbL-0925_RLatLon0.09_PT078H.grib2 2026-05-07 03:18 902K
20260507T00Z_MSC_RDPS_WindDir_IsbL-0950_RLatLon0.09_PT078H.grib2 2026-05-07 03:18 906K
20260507T00Z_MSC_RDPS_WindDir_IsbL-0970_RLatLon0.09_PT078H.grib2 2026-05-07 03:18 908K
20260507T00Z_MSC_RDPS_WindDir_IsbL-0985_RLatLon0.09_PT078H.grib2 2026-05-07 03:18 917K
20260507T00Z_MSC_RDPS_WindDir_IsbL-1000_RLatLon0.09_PT078H.grib2 2026-05-07 03:18 936K
20260507T00Z_MSC_RDPS_WindDir_IsbL-1015_RLatLon0.09_PT078H.grib2 2026-05-07 03:18 953K
20260507T00Z_MSC_RDPS_WindGust-Max_AGL-10m_RLatLon0.09_PT078H.grib2 2026-05-07 03:18 1.0M
20260507T00Z_MSC_RDPS_WindGust-Min_AGL-10m_RLatLon0.09_PT078H.grib2 2026-05-07 03:18 1.0M
20260507T00Z_MSC_RDPS_WindGust_AGL-10m_RLatLon0.09_PT078H.grib2 2026-05-07 03:18 1.0M
20260507T00Z_MSC_RDPS_WindSpeed_AGL-10m_RLatLon0.09_PT078H.grib2 2026-05-07 03:18 842K
20260507T00Z_MSC_RDPS_WindSpeed_AGL-120m_RLatLon0.09_PT078H.grib2 2026-05-07 03:18 543K
20260507T00Z_MSC_RDPS_WindSpeed_AGL-40m_RLatLon0.09_PT078H.grib2 2026-05-07 03:18 675K
20260507T00Z_MSC_RDPS_WindSpeed_AGL-80m_RLatLon0.09_PT078H.grib2 2026-05-07 03:18 672K
20260507T00Z_MSC_RDPS_WindSpeed_IsbL-0001_RLatLon0.09_PT078H.grib2 2026-05-07 03:18 253K
20260507T00Z_MSC_RDPS_WindSpeed_IsbL-0005_RLatLon0.09_PT078H.grib2 2026-05-07 03:18 383K
20260507T00Z_MSC_RDPS_WindSpeed_IsbL-0010_RLatLon0.09_PT078H.grib2 2026-05-07 03:18 396K
20260507T00Z_MSC_RDPS_WindSpeed_IsbL-0020_RLatLon0.09_PT078H.grib2 2026-05-07 03:18 323K
20260507T00Z_MSC_RDPS_WindSpeed_IsbL-0030_RLatLon0.09_PT078H.grib2 2026-05-07 03:18 317K
20260507T00Z_MSC_RDPS_WindSpeed_IsbL-0050_RLatLon0.09_PT078H.grib2 2026-05-07 03:18 446K
20260507T00Z_MSC_RDPS_WindSpeed_IsbL-0100_RLatLon0.09_PT078H.grib2 2026-05-07 03:18 474K
20260507T00Z_MSC_RDPS_WindSpeed_IsbL-0150_RLatLon0.09_PT078H.grib2 2026-05-07 03:18 375K
20260507T00Z_MSC_RDPS_WindSpeed_IsbL-0175_RLatLon0.09_PT078H.grib2 2026-05-07 03:18 401K
20260507T00Z_MSC_RDPS_WindSpeed_IsbL-0200_RLatLon0.09_PT078H.grib2 2026-05-07 03:18 436K
20260507T00Z_MSC_RDPS_WindSpeed_IsbL-0225_RLatLon0.09_PT078H.grib2 2026-05-07 03:18 444K
20260507T00Z_MSC_RDPS_WindSpeed_IsbL-0250_RLatLon0.09_PT078H.grib2 2026-05-07 03:18 448K
20260507T00Z_MSC_RDPS_WindSpeed_IsbL-0275_RLatLon0.09_PT078H.grib2 2026-05-07 03:18 467K
20260507T00Z_MSC_RDPS_WindSpeed_IsbL-0300_RLatLon0.09_PT078H.grib2 2026-05-07 03:18 463K
20260507T00Z_MSC_RDPS_WindSpeed_IsbL-0350_RLatLon0.09_PT078H.grib2 2026-05-07 03:18 473K
20260507T00Z_MSC_RDPS_WindSpeed_IsbL-0400_RLatLon0.09_PT078H.grib2 2026-05-07 03:18 478K
20260507T00Z_MSC_RDPS_WindSpeed_IsbL-0450_RLatLon0.09_PT078H.grib2 2026-05-07 03:18 464K
20260507T00Z_MSC_RDPS_WindSpeed_IsbL-0500_RLatLon0.09_PT078H.grib2 2026-05-07 03:18 465K
20260507T00Z_MSC_RDPS_WindSpeed_IsbL-0550_RLatLon0.09_PT078H.grib2 2026-05-07 03:18 464K
20260507T00Z_MSC_RDPS_WindSpeed_IsbL-0600_RLatLon0.09_PT078H.grib2 2026-05-07 03:18 472K
20260507T00Z_MSC_RDPS_WindSpeed_IsbL-0650_RLatLon0.09_PT078H.grib2 2026-05-07 03:18 610K
20260507T00Z_MSC_RDPS_WindSpeed_IsbL-0700_RLatLon0.09_PT078H.grib2 2026-05-07 03:18 636K
20260507T00Z_MSC_RDPS_WindSpeed_IsbL-0750_RLatLon0.09_PT078H.grib2 2026-05-07 03:18 668K
20260507T00Z_MSC_RDPS_WindSpeed_IsbL-0800_RLatLon0.09_PT078H.grib2 2026-05-07 03:18 763K
20260507T00Z_MSC_RDPS_WindSpeed_IsbL-0850_RLatLon0.09_PT078H.grib2 2026-05-07 03:18 818K
20260507T00Z_MSC_RDPS_WindSpeed_IsbL-0875_RLatLon0.09_PT078H.grib2 2026-05-07 03:18 836K
20260507T00Z_MSC_RDPS_WindSpeed_IsbL-0900_RLatLon0.09_PT078H.grib2 2026-05-07 03:18 852K
20260507T00Z_MSC_RDPS_WindSpeed_IsbL-0925_RLatLon0.09_PT078H.grib2 2026-05-07 03:18 866K
20260507T00Z_MSC_RDPS_WindSpeed_IsbL-0950_RLatLon0.09_PT078H.grib2 2026-05-07 03:18 863K
20260507T00Z_MSC_RDPS_WindSpeed_IsbL-0970_RLatLon0.09_PT078H.grib2 2026-05-07 03:18 863K
20260507T00Z_MSC_RDPS_WindSpeed_IsbL-0985_RLatLon0.09_PT078H.grib2 2026-05-07 03:18 857K
20260507T00Z_MSC_RDPS_WindSpeed_IsbL-1000_RLatLon0.09_PT078H.grib2 2026-05-07 03:18 851K
20260507T00Z_MSC_RDPS_WindSpeed_IsbL-1015_RLatLon0.09_PT078H.grib2 2026-05-07 03:18 843K
20260507T00Z_MSC_RDPS_WindU_AGL-10m_RLatLon0.09_PT078H.grib2 2026-05-07 03:18 431K
20260507T00Z_MSC_RDPS_WindU_AGL-120m_RLatLon0.09_PT078H.grib2 2026-05-07 03:18 536K
20260507T00Z_MSC_RDPS_WindU_AGL-40m_RLatLon0.09_PT078H.grib2 2026-05-07 03:18 539K
20260507T00Z_MSC_RDPS_WindU_AGL-80m_RLatLon0.09_PT078H.grib2 2026-05-07 03:18 537K
20260507T00Z_MSC_RDPS_WindU_IsbL-0001_RLatLon0.09_PT078H.grib2 2026-05-07 03:18 293K
20260507T00Z_MSC_RDPS_WindU_IsbL-0005_RLatLon0.09_PT078H.grib2 2026-05-07 03:18 286K
20260507T00Z_MSC_RDPS_WindU_IsbL-0010_RLatLon0.09_PT078H.grib2 2026-05-07 03:18 296K
20260507T00Z_MSC_RDPS_WindU_IsbL-0020_RLatLon0.09_PT078H.grib2 2026-05-07 03:18 313K
20260507T00Z_MSC_RDPS_WindU_IsbL-0030_RLatLon0.09_PT078H.grib2 2026-05-07 03:18 310K
20260507T00Z_MSC_RDPS_WindU_IsbL-0050_RLatLon0.09_PT078H.grib2 2026-05-07 03:18 339K
20260507T00Z_MSC_RDPS_WindU_IsbL-0100_RLatLon0.09_PT078H.grib2 2026-05-07 03:18 431K
20260507T00Z_MSC_RDPS_WindU_IsbL-0150_RLatLon0.09_PT078H.grib2 2026-05-07 03:18 367K
20260507T00Z_MSC_RDPS_WindU_IsbL-0175_RLatLon0.09_PT078H.grib2 2026-05-07 03:18 415K
20260507T00Z_MSC_RDPS_WindU_IsbL-0200_RLatLon0.09_PT078H.grib2 2026-05-07 03:18 429K
20260507T00Z_MSC_RDPS_WindU_IsbL-0225_RLatLon0.09_PT078H.grib2 2026-05-07 03:18 435K
20260507T00Z_MSC_RDPS_WindU_IsbL-0250_RLatLon0.09_PT078H.grib2 2026-05-07 03:18 437K
20260507T00Z_MSC_RDPS_WindU_IsbL-0275_RLatLon0.09_PT078H.grib2 2026-05-07 03:18 355K
20260507T00Z_MSC_RDPS_WindU_IsbL-0300_RLatLon0.09_PT078H.grib2 2026-05-07 03:18 350K
20260507T00Z_MSC_RDPS_WindU_IsbL-0350_RLatLon0.09_PT078H.grib2 2026-05-07 03:18 461K
20260507T00Z_MSC_RDPS_WindU_IsbL-0400_RLatLon0.09_PT078H.grib2 2026-05-07 03:18 466K
20260507T00Z_MSC_RDPS_WindU_IsbL-0450_RLatLon0.09_PT078H.grib2 2026-05-07 03:18 469K
20260507T00Z_MSC_RDPS_WindU_IsbL-0500_RLatLon0.09_PT078H.grib2 2026-05-07 03:18 471K
20260507T00Z_MSC_RDPS_WindU_IsbL-0550_RLatLon0.09_PT078H.grib2 2026-05-07 03:18 471K
20260507T00Z_MSC_RDPS_WindU_IsbL-0600_RLatLon0.09_PT078H.grib2 2026-05-07 03:18 463K
20260507T00Z_MSC_RDPS_WindU_IsbL-0650_RLatLon0.09_PT078H.grib2 2026-05-07 03:18 482K
20260507T00Z_MSC_RDPS_WindU_IsbL-0700_RLatLon0.09_PT078H.grib2 2026-05-07 03:18 505K
20260507T00Z_MSC_RDPS_WindU_IsbL-0750_RLatLon0.09_PT078H.grib2 2026-05-07 03:18 533K
20260507T00Z_MSC_RDPS_WindU_IsbL-0800_RLatLon0.09_PT078H.grib2 2026-05-07 03:18 577K
20260507T00Z_MSC_RDPS_WindU_IsbL-0850_RLatLon0.09_PT078H.grib2 2026-05-07 03:18 625K
20260507T00Z_MSC_RDPS_WindU_IsbL-0875_RLatLon0.09_PT078H.grib2 2026-05-07 03:18 640K
20260507T00Z_MSC_RDPS_WindU_IsbL-0900_RLatLon0.09_PT078H.grib2 2026-05-07 03:18 653K
20260507T00Z_MSC_RDPS_WindU_IsbL-0925_RLatLon0.09_PT078H.grib2 2026-05-07 03:18 661K
20260507T00Z_MSC_RDPS_WindU_IsbL-0950_RLatLon0.09_PT078H.grib2 2026-05-07 03:18 659K
20260507T00Z_MSC_RDPS_WindU_IsbL-0970_RLatLon0.09_PT078H.grib2 2026-05-07 03:18 796K
20260507T00Z_MSC_RDPS_WindU_IsbL-0985_RLatLon0.09_PT078H.grib2 2026-05-07 03:18 789K
20260507T00Z_MSC_RDPS_WindU_IsbL-1000_RLatLon0.09_PT078H.grib2 2026-05-07 03:18 830K
20260507T00Z_MSC_RDPS_WindU_IsbL-1015_RLatLon0.09_PT078H.grib2 2026-05-07 03:18 824K
20260507T00Z_MSC_RDPS_WindV_AGL-10m_RLatLon0.09_PT078H.grib2 2026-05-07 03:18 432K
20260507T00Z_MSC_RDPS_WindV_AGL-120m_RLatLon0.09_PT078H.grib2 2026-05-07 03:18 537K
20260507T00Z_MSC_RDPS_WindV_AGL-40m_RLatLon0.09_PT078H.grib2 2026-05-07 03:18 539K
20260507T00Z_MSC_RDPS_WindV_AGL-80m_RLatLon0.09_PT078H.grib2 2026-05-07 03:18 537K
20260507T00Z_MSC_RDPS_WindV_IsbL-0001_RLatLon0.09_PT078H.grib2 2026-05-07 03:18 245K
20260507T00Z_MSC_RDPS_WindV_IsbL-0005_RLatLon0.09_PT078H.grib2 2026-05-07 03:18 286K
20260507T00Z_MSC_RDPS_WindV_IsbL-0010_RLatLon0.09_PT078H.grib2 2026-05-07 03:18 298K
20260507T00Z_MSC_RDPS_WindV_IsbL-0020_RLatLon0.09_PT078H.grib2 2026-05-07 03:18 313K
20260507T00Z_MSC_RDPS_WindV_IsbL-0030_RLatLon0.09_PT078H.grib2 2026-05-07 03:18 310K
20260507T00Z_MSC_RDPS_WindV_IsbL-0050_RLatLon0.09_PT078H.grib2 2026-05-07 03:18 337K
20260507T00Z_MSC_RDPS_WindV_IsbL-0100_RLatLon0.09_PT078H.grib2 2026-05-07 03:18 426K
20260507T00Z_MSC_RDPS_WindV_IsbL-0150_RLatLon0.09_PT078H.grib2 2026-05-07 03:18 390K
20260507T00Z_MSC_RDPS_WindV_IsbL-0175_RLatLon0.09_PT078H.grib2 2026-05-07 03:18 414K
20260507T00Z_MSC_RDPS_WindV_IsbL-0200_RLatLon0.09_PT078H.grib2 2026-05-07 03:18 331K
20260507T00Z_MSC_RDPS_WindV_IsbL-0225_RLatLon0.09_PT078H.grib2 2026-05-07 03:18 336K
20260507T00Z_MSC_RDPS_WindV_IsbL-0250_RLatLon0.09_PT078H.grib2 2026-05-07 03:18 365K
20260507T00Z_MSC_RDPS_WindV_IsbL-0275_RLatLon0.09_PT078H.grib2 2026-05-07 03:18 378K
20260507T00Z_MSC_RDPS_WindV_IsbL-0300_RLatLon0.09_PT078H.grib2 2026-05-07 03:18 374K
20260507T00Z_MSC_RDPS_WindV_IsbL-0350_RLatLon0.09_PT078H.grib2 2026-05-07 03:18 357K
20260507T00Z_MSC_RDPS_WindV_IsbL-0400_RLatLon0.09_PT078H.grib2 2026-05-07 03:18 362K
20260507T00Z_MSC_RDPS_WindV_IsbL-0450_RLatLon0.09_PT078H.grib2 2026-05-07 03:18 364K
20260507T00Z_MSC_RDPS_WindV_IsbL-0500_RLatLon0.09_PT078H.grib2 2026-05-07 03:18 468K
20260507T00Z_MSC_RDPS_WindV_IsbL-0550_RLatLon0.09_PT078H.grib2 2026-05-07 03:18 468K
20260507T00Z_MSC_RDPS_WindV_IsbL-0600_RLatLon0.09_PT078H.grib2 2026-05-07 03:18 477K
20260507T00Z_MSC_RDPS_WindV_IsbL-0650_RLatLon0.09_PT078H.grib2 2026-05-07 03:18 493K
20260507T00Z_MSC_RDPS_WindV_IsbL-0700_RLatLon0.09_PT078H.grib2 2026-05-07 03:18 515K
20260507T00Z_MSC_RDPS_WindV_IsbL-0750_RLatLon0.09_PT078H.grib2 2026-05-07 03:18 542K
20260507T00Z_MSC_RDPS_WindV_IsbL-0800_RLatLon0.09_PT078H.grib2 2026-05-07 03:18 572K
20260507T00Z_MSC_RDPS_WindV_IsbL-0850_RLatLon0.09_PT078H.grib2 2026-05-07 03:18 622K
20260507T00Z_MSC_RDPS_WindV_IsbL-0875_RLatLon0.09_PT078H.grib2 2026-05-07 03:18 638K
20260507T00Z_MSC_RDPS_WindV_IsbL-0900_RLatLon0.09_PT078H.grib2 2026-05-07 03:18 650K
20260507T00Z_MSC_RDPS_WindV_IsbL-0925_RLatLon0.09_PT078H.grib2 2026-05-07 03:18 659K
20260507T00Z_MSC_RDPS_WindV_IsbL-0950_RLatLon0.09_PT078H.grib2 2026-05-07 03:18 659K
20260507T00Z_MSC_RDPS_WindV_IsbL-0970_RLatLon0.09_PT078H.grib2 2026-05-07 03:18 796K
20260507T00Z_MSC_RDPS_WindV_IsbL-0985_RLatLon0.09_PT078H.grib2 2026-05-07 03:18 790K
20260507T00Z_MSC_RDPS_WindV_IsbL-1000_RLatLon0.09_PT078H.grib2 2026-05-07 03:18 831K
20260507T00Z_MSC_RDPS_WindV_IsbL-1015_RLatLon0.09_PT078H.grib2 2026-05-07 03:18 824K